Location: Newark
(58.9986°N, 38.5006°E)
Time: 18:38:36
(UTC+00:00)

ISS - Pass Details

Date: 07 March 2021
Orbit: 418 x 422 km, 51.6° (Epoch: 17 April)

Event Time Altitude Azimuth Distance (km) Brightness Sun altitude
Exits shadow 02:22:13 18° 209° (SSW) 1,118 -2.0 -14.0°
Maximum altitude 02:22:41 18° 198° (SSW) 1,099 -1.9 -14.0°
Drops below altitude 10° 02:25:04 10° 152° (SSE) 1,498 -0.8 -13.7°
Sets 02:27:35 0° 133° (SE) 2,361 0.6 -13.4°
